This is the latest recevied weather packets stored in our database for station/object CE1RLP-34. If no packets are shown the sender has not sent any weather packets the latest 10 day(s).
| Time | Temp. | Humidity | Pressure | Rain* | Wind** | Luminosity | Snow |
|---|---|---|---|---|---|---|---|
| 1778017821 | 22.78° C | 11% | 1082.6 hPa | - | - | - | - |
| 1778016921 | 24.44° C | 10% | 1082.5 hPa | - | - | - | - |
| 1778016019 | 26.11° C | 9% | 1082.3 hPa | - | - | - | - |
| 1778014216 | 30.56° C | 7% | 1082.2 hPa | - | - | - | - |
| 1778013316 | 31.67° C | 7% | 1082.1 hPa | - | - | - | - |
| 1778012413 | 31.67° C | 7% | 1082.2 hPa | - | - | - | - |
| 1778011513 | 31.67° C | 7% | 1082.2 hPa | - | - | - | - |
| 1778010611 | 31.11° C | 7% | 1082.3 hPa | - | - | - | - |
| 1778009711 | 30.56° C | 8% | 1082.1 hPa | - | - | - | - |
| 1778008808 | 30.56° C | 8% | 1082.1 hPa | - | - | - | - |
| 1778007908 | 30.56° C | 8% | 1082.3 hPa | - | - | - | - |
| 1778007006 | 31.11° C | 7% | 1082.3 hPa | - | - | - | - |
| 1778005204 | 31.11° C | 8% | 1082.6 hPa | - | - | - | - |
| 1778003430 | 31.11° C | 7% | 1082.7 hPa | - | - | - | - |
| 1778002530 | 30.56° C | 7% | 1082.7 hPa | - | - | - | - |
| 1778001628 | 30.56° C | 7% | 1082.9 hPa | - | - | - | - |
| 1778000728 | 30.56° C | 7% | 1083 hPa | - | - | - | - |
| 1777999825 | 30° C | 6% | 1082.9 hPa | - | - | - | - |
| 1777998925 | 30° C | 6% | 1083 hPa | - | - | - | - |
| 1777998023 | 30° C | 6% | 1083.1 hPa | - | - | - | - |
| 1777997123 | 30° C | 6% | 1083.2 hPa | - | - | - | - |
| 1777996220 | 30° C | 6% | 1083.2 hPa | - | - | - | - |
| 1777995321 | 29.44° C | 6% | 1083.3 hPa | - | - | - | - |
| 1777994418 | 28.89° C | 5% | 1083.4 hPa | - | - | - | - |
| 1777993518 | 28.33° C | 6% | 1083.4 hPa | - | - | - | - |
* Rain since midnight (hover to see other rain measurements)
** Current wind speed in m/s (hover to see current wind gust speed)